TimeCEST,TemperatureF,Dew PointF,Humidity,Sea Level PressureIn,VisibilityMPH,Wind Direction,Wind SpeedMPH,Gust SpeedMPH,PrecipitationIn,Events,Conditions,WindDirDegrees,DateUTC
1:09 AM,42.8,39.2,87,29.77,-9999.0,Calm,Calm,-,N/A,,Clear,0,2012-10-13 23:09:00
2:00 AM,42.8,41.0,93,29.77,-9999.0,Calm,Calm,-,N/A,,Clear,0,2012-10-14 00:00:00
3:00 AM,41.0,37.4,87,29.77,-9999.0,South,4.6,-,N/A,,Clear,190,2012-10-14 01:00:00
4:00 AM,42.8,39.2,87,29.77,-9999.0,Calm,Calm,-,N/A,,Clear,0,2012-10-14 02:00:00
5:00 AM,44.6,41.0,87,29.77,-9999.0,SSE,5.8,-,N/A,,Clear,150,2012-10-14 03:00:00
8:00 AM,42.8,41.0,93,29.77,-9999.0,SSE,3.5,-,N/A,,Clear,150,2012-10-14 06:00:00
9:00 AM,48.2,42.8,82,29.77,-9999.0,South,5.8,-,N/A,,Clear,180,2012-10-14 07:00:00
10:00 AM,50.0,44.6,82,29.77,-9999.0,SSE,6.9,-,N/A,,Clear,150,2012-10-14 08:00:00
11:00 AM,53.6,42.8,67,29.77,-9999.0,SSE,5.8,-,N/A,,Clear,150,2012-10-14 09:00:00
12:00 PM,57.2,42.8,59,29.74,6.2,SW,3.5,-,N/A,,Mostly Cloudy,220,2012-10-14 10:00:00
1:00 PM,59.0,44.6,59,29.74,-9999.0,WSW,5.8,-,N/A,,Clear,250,2012-10-14 11:00:00
2:00 PM,59.0,44.6,59,29.71,-9999.0,Variable,2.3,-,N/A,,Clear,0,2012-10-14 12:00:00
3:00 PM,60.8,42.8,52,29.68,-9999.0,South,4.6,-,N/A,,Clear,170,2012-10-14 13:00:00
4:00 PM,60.8,44.6,55,29.65,6.2,SE,6.9,-,N/A,,Scattered Clouds,130,2012-10-14 14:00:00
5:00 PM,60.8,44.6,55,29.65,-9999.0,SE,8.1,-,N/A,,Clear,140,2012-10-14 15:00:00
6:00 PM,57.2,44.6,63,29.65,-9999.0,SSE,9.2,-,N/A,,Clear,150,2012-10-14 16:00:00
7:00 PM,55.4,44.6,67,29.65,-9999.0,SE,9.2,-,N/A,,Clear,130,2012-10-14 17:00:00
8:00 PM,51.8,46.4,82,29.65,-9999.0,ESE,6.9,-,N/A,,Clear,120,2012-10-14 18:00:00
9:00 PM,50.0,46.4,87,29.62,6.2,East,3.5,-,N/A,,Mostly Cloudy,100,2012-10-14 19:00:00
10:00 PM,50.0,46.4,87,29.62,6.2,East,5.8,-,N/A,,Mostly Cloudy,80,2012-10-14 20:00:00
11:00 PM,51.8,48.2,88,29.59,6.2,East,6.9,-,N/A,,Mostly Cloudy,90,2012-10-14 21:00:00